Showing default

CUBESAT XI 5, 28895

Orbit data source: Space-Track

CUBESAT XI 5, 28895 is a payload satellite owned by Tokyo (JP) in SSO that was launched on Thu, 27 Oct 2005 UTC via a KOSMOS 11K65M launch vehicle from the Plesetsk Missile And Space Complex (PKMTR). Payload-class satellites include a variety of spacecraft equipped with specific instruments for various scientific and technological missions. These include communications satellites like Starlink; space stations such as the ISS; scientific satellites like the Hubble; Earth observation satellites from companies like Planet Labs, Umbra, and HawkEye 360; GPS; miniature CubeSats for education and research; and military/defense satellites.

Loading next visibility...
Identifier
28895, 2005-043F
Orbit
SSO
Last TLE update
15 hours ago
Origin
Manufacturer
Tokyo
Mission
Operational Amateur Technology
Bus & Motor
CUBESAT 1U, Unknown motor
Mass
1 kg wet, 1 kg dry
Launch date (UTC)
2005-10-27 (20 years ago)
Launch vehicle
KOSMOS 11K65M
Launch site
Plesetsk Missile And Space Complex (PKMTR)
Object type
Payload
Rocket body
Debris
Shape & HBR
Box, 0.1 m
Radar Cross Section
0.015 m², Small (<0.1 m²)

Expand to show TLE details & history

TLE from 15 hours ago
0 CUBESAT XI 5
1 28895U 05043F   25188.88221391  .00001154  00000-0  19601-3 0  9993
2 28895  98.2531 333.5924 0013861 212.9030 147.1315 14.71087404 51337
Epoch: 2025-07-07T21:10Z
TLE epoch observation values (Epoch: 2025-07-07T21:10:23.281Z)
Latitude
0.00001°
Longitude
89.91022°
Altitude
668.794 km
Speed
7.518 km/s
True Right ascension
22h 14m 22s
True Declination
0° 00' 00"
Sunlit
Object was in full shadow at epoch
Visualization orbit readout
Latitude
45.59302°
Longitude
82.06955°
Altitude
673.965 km
Speed
7.519 km/s
Apparent Right ascension
16h 59m 55s
Apparent Declination
16° 51' 02"
Sunlit
Object is in daylight
Visualization observer readout
Local Sidereal Time
00:10:45
Azimuth
294.168° NW
Elevation
-2.136°
Doppler factor
1
Orbital elements
Apogee altitude
664.416 km
Perigee altitude
644.919 km
Semi-major axis
7,032.805 km
Eccentricity
0.00139
Inclination
98.2531°
RAAN
333.5924°
Arg. of periapsis
212.903°
True anomaly
Unknown
Mean anomaly
147.1315°
Eccentric anomaly
Unknown
Mean motion
3.68002 °/min
Orbital period
97.83 mins
BSTAR
0.00019601
Loading maneuver chart data...
Loading SW <> Apogee altitude chart data...
Loading historical data...
Loading historical data...
Loading historical data...
Loading historical data...
Loading historical data...
Loading historical data...
Loading historical data...

CUBESAT XI 5 Visibility forecast

Observer location: undefined°, undefined°

Span
Click to sort rows by Start time (UTC) header in descending order
Start Az.
Max El. time (UTC)
Max El. Az.
Max El.
End time (UTC)
End Az.
8 mins2025-07-08 22:13:26.571Z22.925° NE2025-07-08 22:17:26.571Z81.648° E38.055°2025-07-08 22:21:26.571Z175.129° S
7 mins2025-07-09 09:13:26.571Z138.896° SSE2025-07-09 09:16:26.571Z76.914° E36.011°2025-07-09 09:20:26.571Z1.174° NNE
|